CAPE
0 0 0 0 0 0 0 7 3 241 174 247 3 97 54 74 66 1 2 98 1019 1100 982 566 889 1401 1309 920 494 376 323 193 71 32 1 51 166 399 650 694 641 633 765 725 460 375 594 724 675
0 0 0 0 0 0 5 0 185 271 279 243 257 156 125 39 200 103 195 399 500 1196 1082 640 968 1588 1852 1534 840 522 437 248 63 20 37 21 39 158 371 618 751 778 615 465 400 522 638 788 660
0 0 0 0 0 0 15 9 254 359 335 274 435 177 1183 916 768 207 105 83 246 755 973 782 821 1421 1946 1653 1078 876 757 561 340 174 129 73 42 51 86 201 296 506 610 681 739 787 928 869 605
0 0 0 0 0 0 0 134 233 550 366 353 6 0 0 4 1230 425 211 5 0 0 1253 644 855 1168 1397 1459 1414 1196 997 909 889 702 470 360 169 108 28 91 386 663 613 540 700 855 868 780 601
0 0 0 0 0 0 0 54 406 505 203 0 0 0 0 0 869 651 4 332 1483 48 1435 1259 1135 963 996 1227 1204 1010 974 1053 922 909 861 723 577 480 253 65 126 247 767 1275 1054 895 760 594 463
0 0 0 0 0 0 0 0 214 88 0 0 0 0 0 0 808 205 21 1443 1879 1146 1531 1629 1080 731 741 635 539 586 692 867 1082 1100 958 913 843 768 676 496 269 243 364 679 886 834 976 881 684
0 0 0 0 0 0 0 0 36 0 0 0 0 0 0 0 909 75 984 1398 1432 1421 1144 1012 547 680 1075 1081 958 879 712 675 798 973 1059 1096 1081 988 903 809 665 495 363 570 971 1058 883 670 730
0 0 0 0 0 0 0 0 0 0 0 0 0 0 0 0 258 652 423 56 183 142 7 0 0 0 376 521 425 1297 1713 1646 1248 872 786 787 960 965 1186 1068 940 830 665 572 510 598 600 719 682
0 0 0 0 0 0 0 0 0 0 0 0 0 0 0 0 679 638 22 0 0 0 0 0 0 0 0 0 0 0 28 43 456 623 717 896 728 628 599 692 888 817 746 744 758 692 683 629 651
0 0 0 0 0 0 0 0 0 0 0 0 0 0 0 413 572 245 121 1 0 0 0 0 0 0 0 0 0 0 0 0 0 0 0 0 0 133 278 458 769 772 794 775 732 790 833 798 712
0 0 0 0 0 0 0 0 0 0 0 0 0 0 7 243 202 91 9 0 0 0 0 0 0 0 0 0 0 0 0 0 0 0 0 0 0 0 0 55 474 688 750 643 617 697 952 841 741
0 0 0 0 0 0 0 0 0 0 0 0 0 0 0 0 0 0 0 0 0 0 0 0 0 0 0 0 0 0 0 0 0 0 0 0 0 0 0 0 64 243 250 371 427 366 677 778 738
0 0 0 0 0 0 0 0 0 0 0 0 0 0 0 0 0 0 0 0 0 0 0 0 0 0 0 0 0 0 0 0 0 0 0 0 0 0 0 1 24 109 342 507 623 630 647 744 748
0 0 0 0 0 0 0 0 0 0 0 0 0 0 0 0 0 0 0 0 0 0 0 0 0 0 0 0 0 0 0 0 0 0 0 0 0 0 0 0 22 77 197 288 701 808 770 614 520
0 0 0 0 0 0 0 0 0 0 0 0 0 0 0 0 0 0 0 0 0 0 0 0 0 0 0 0 0 0 0 0 0 0 0 0 0 0 0 0 0 23 52 150 345 520 563 614 273
0 0 0 0 0 0 0 0 0 0 0 0 0 0 0 0 0 0 0 0 0 0 0 0 0 0 0 0 0 0 0 0 0 0 0 0 0 1 0 0 0 0 29 117 194 338 404 504 322
0 0 0 0 0 0 0 0 0 0 0 0 0 0 0 0 0 0 0 0 0 0 0 0 0 0 0 0 0 0 0 0 0 0 0 0 1 0 0 0 0 0 1 132 231 331 581 500 350
0 0 0 0 0 0 0 0 0 0 0 0 0 0 0 0 0 0 0 0 0 0 0 0 0 0 0 0 0 0 0 0 0 0 0 0 0 4 1 1 0 0 4 333 602 535 665 449 226
0 0 0 0 0 0 0 0 0 0 0 0 0 0 0 0 0 0 0 0 0 0 0 0 0 0 0 0 0 0 0 0 0 0 0 0 0 5 2 1 0 0 3 398 848 701 820 531 263
0 0 0 0 0 0 0 0 0 0 0 0 0 0 0 0 0 0 0 0 0 0 0 0 0 0 0 0 0 0 0 0 0 0 0 0 0 0 0 2 1 0 0 3 389 545 324 313 231
0 0 0 0 0 0 0 0 0 0 0 0 0 0 0 0 0 0 0 0 0 0 0 0 0 0 0 0 0 0 0 0 0 0 0 0 0 0 0 0 19 21 0 0 1 58 168 254 133
0 0 0 0 0 0 0 0 0 0 0 0 0 0 0 0 0 0 0 0 0 0 0 0 0 0 0 0 0 0 0 0 0 0 0 0 0 0 0 0 0 95 41 0 0 23 23 74 145
0 0 0 0 0 0 0 0 0 0 0 0 0 0 0 0 0 0 0 0 0 0 0 0 0 0 0 0 0 0 0 0 0 0 0 0 0 0 0 0 0 0 32 3 1 24 0 0 6
0 0 0 0 0 0 0 0 0 0 0 0 0 0 0 0 0 0 0 0 0 0 0 0 0 0 0 0 0 0 3 0 0 0 0 0 0 0 0 0 0 0 0 2 0 2 44 27 25
0 0 0 0 0 0 0 0 0 0 0 0 0 0 0 0 0 0 0 0 0 0 0 0 0 0 0 0 0 0 0 0 0 0 0 0 0 0 0 0 0 0 1 2 1 1 0 0 1
0 0 0 0 0 0 0 0 0 0 0 0 0 0 0 0 0 0 0 0 0 0 0 0 0 0 0 0 0 0 0 0 0 0 0 0 0 0 0 0 0 0 0 0 1 2 0 1 0
0 0 0 0 0 0 0 0 0 0 0 0 0 0 0 0 0 0 0 0 0 0 0 0 0 0 0 0 0 0 0 0 0 0 0 0 0 0 0 0 0 0 1 0 1 1 0 0 0
0 0 0 0 0 0 0 0 0 0 0 0 0 0 0 0 0 0 0 0 0 0 0 0 0 0 0 0 0 0 0 0 0 0 0 0 0 0 0 0 0 0 0 0 0 0 1 0 0
0 0 0 0 0 0 0 0 0 0 0 0 0 0 0 0 0 0 0 0 0 0 0 0 0 0 0 0 0 0 0 0 0 0 0 5 6 0 0 0 1 2 1 0 0 0 0 0 0
0 0 0 0 0 0 0 0 0 0 0 0 0 0 0 0 0 0 0 0 0 0 0 0 0 0 0 0 0 0 0 0 1 1 3 9 1 1 1 2 1 1 1 0 0 0 0 0 0
CIN
0 0 0 0 0 0 0 -64 -21 -75 -126 -173 -56 -191 -166 -219 -192 -35 -352 -494 -329 -260 -268 -288 -212 -151 -144 -181 -236 -265 -282 -309 -366 -389 -68 -346 -282 -197 -127 -109 -117 -113 -87 -99 -142 -152 -103 -75 -76
0 0 0 0 0 0 -38 0 -46 -90 -135 -187 -172 -206 -180 -82 -253 -296 -319 -358 -345 -227 -283 -284 -229 -123 -66 -87 -162 -200 -226 -267 -310 -350 -346 -363 -347 -279 -191 -118 -78 -58 -77 -119 -132 -93 -80 -62 -80
0 0 0 0 0 0 -38 -51 -72 -111 -136 -164 -150 -95 -86 -87 -176 -226 -322 -423 -376 -234 -221 -263 -212 -107 -58 -78 -118 -127 -137 -160 -196 -245 -268 -287 -315 -328 -305 -212 -181 -115 -73 -46 -34 -31 -7 -13 -55
0 0 0 0 0 0 0 -69 -95 -88 -128 -146 -4 0 0 -5 -138 -166 -353 -47 0 -5 -246 -249 -221 -175 -123 -93 -78 -86 -108 -109 -101 -110 -135 -158 -220 -236 -297 -240 -135 -82 -87 -94 -46 -19 -17 -18 -36
0 0 0 0 0 0 0 -114 -87 -79 -152 0 0 0 0 0 -242 -242 -199 -354 -202 -509 -206 -205 -196 -199 -151 -96 -82 -106 -102 -84 -96 -90 -77 -85 -113 -128 -161 -241 -188 -151 -74 -16 -21 -27 -38 -55 -66
0 0 0 0 0 0 0 0 -96 -124 0 0 0 0 0 0 -152 -439 -522 -185 -180 -253 -185 -159 -174 -206 -191 -169 -166 -139 -121 -105 -73 -66 -76 -73 -62 -75 -89 -106 -138 -133 -112 -67 -44 -43 -20 -26 -40
0 0 0 0 0 0 0 0 -106 0 0 0 0 0 0 0 -208 -526 -248 -201 -202 -195 -222 -210 -253 -220 -131 -112 -104 -105 -121 -112 -83 -71 -61 -51 -48 -53 -61 -73 -76 -94 -105 -80 -38 -23 -26 -45 -33
0 0 0 0 0 0 0 0 0 0 0 0 0 0 0 0 -342 -274 -314 -491 -424 -446 -570 0 0 0 -209 -195 -183 -98 -56 -36 -52 -72 -65 -64 -54 -52 -28 -43 -59 -57 -62 -65 -86 -78 -73 -39 -37
0 0 0 0 0 0 0 0 0 0 0 0 0 0 0 0 -281 -283 -498 0 0 0 0 0 0 0 0 0 0 0 -199 -199 -174 -134 -113 -80 -91 -96 -105 -99 -69 -66 -66 -51 -51 -60 -61 -55 -46
0 0 0 0 0 0 0 0 0 0 0 0 0 0 0 -318 -244 -286 -313 -24 0 0 0 0 0 0 0 0 0 0 0 0 0 0 0 0 0 -167 -164 -143 -102 -84 -67 -59 -54 -46 -37 -42 -51
0 0 0 0 0 0 0 0 0 0 0 0 0 0 -249 -257 -287 -290 -155 0 0 0 0 0 0 0 0 0 0 0 0 0 0 0 0 0 0 0 0 -237 -165 -125 -93 -89 -84 -70 -41 -53 -58
0 0 0 0 0 0 0 0 0 0 0 0 0 0 0 0 0 0 0 0 0 0 0 0 0 0 0 0 0 0 0 0 0 0 0 0 0 0 0 0 -250 -189 -190 -136 -113 -104 -81 -69 -69
0 0 0 0 0 0 0 0 0 0 0 0 0 0 0 0 0 0 0 0 0 0 0 0 0 0 0 0 0 0 0 0 0 0 0 0 0 0 0 -34 -269 -223 -178 -142 -117 -92 -78 -77 -60
0 0 0 0 0 0 0 0 0 0 0 0 0 0 0 0 0 0 0 0 0 0 0 0 0 0 0 0 0 0 0 0 0 0 0 0 0 0 0 0 -179 -221 -202 -182 -121 -97 -73 -70 -53
0 0 0 0 0 0 0 0 0 0 0 0 0 0 0 0 0 0 0 0 0 0 0 0 0 0 0 0 0 0 0 0 0 0 0 0 0 0 0 0 0 -197 -230 -193 -165 -132 -109 -82 -64
0 0 0 0 0 0 0 0 0 0 0 0 0 0 0 0 0 0 0 0 0 0 0 0 0 0 0 0 0 0 0 0 0 0 0 0 0 0 0 0 0 0 -245 -182 -180 -158 -141 -101 -59
0 0 0 0 0 0 0 0 0 0 0 0 0 0 0 0 0 0 0 0 0 0 0 0 0 0 0 0 0 0 0 0 0 0 0 0 0 0 0 0 0 0 -8 -151 -146 -159 -119 -106 -55
0 0 0 0 0 0 0 0 0 0 0 0 0 0 0 0 0 0 0 0 0 0 0 0 0 0 0 0 0 0 0 0 0 0 0 0 0 0 0 0 0 0 -8 -54 -65 -111 -116 -80 -74
0 0 0 0 0 0 0 0 0 0 0 0 0 0 0 0 0 0 0 0 0 0 0 0 0 0 0 0 0 0 0 0 0 0 0 0 0 0 0 0 0 0 0 -17 -19 -57 -71 -85 -114
0 0 0 0 0 0 0 0 0 0 0 0 0 0 0 0 0 0 0 0 0 0 0 0 0 0 0 0 0 0 0 0 0 0 0 0 0 0 0 -2 0 0 0 0 -39 -54 -94 -104 -128
0 0 0 0 0 0 0 0 0 0 0 0 0 0 0 0 0 0 0 0 0 0 0 0 0 0 0 0 0 0 0 0 0 0 0 0 0 0 0 0 -119 -104 0 0 0 -124 -111 -54 -172
0 0 0 0 0 0 0 0 0 0 0 0 0 0 0 0 0 0 0 0 0 0 0 0 0 0 0 0 0 0 0 0 0 0 0 0 0 0 0 0 0 -72 -88 0 0 -135 -151 -149 -89
0 0 0 0 0 0 0 0 0 0 0 0 0 0 0 0 0 0 0 0 0 0 0 0 0 0 0 0 0 0 0 0 0 0 0 0 0 0 0 0 0 0 -157 -93 0 -116 0 0 -227
0 0 0 0 0 0 0 0 0 0 0 0 0 0 0 0 0 0 0 0 0 0 0 0 0 0 0 0 0 0 -31 0 0 0 0 0 0 0 0 0 0 0 0 0 0 0 -77 -134 -138
0 0 0 0 0 0 0 0 0 0 0 0 0 0 0 0 0 0 0 0 0 0 0 0 0 0 0 0 0 0 0 0 0 0 0 0 0 0 0 0 0 0 0 0 0 0 0 0 0
0 0 0 0 0 0 0 0 0 0 0 0 0 0 0 0 0 0 0 0 0 0 0 0 0 0 0 0 0 0 0 0 0 0 0 0 0 0 0 0 0 0 0 0 0 0 0 0 0
0 0 0 0 0 0 0 0 0 0 0 0 0 0 0 0 0 0 0 0 0 0 0 0 0 0 0 0 0 0 0 0 0 0 0 0 0 0 0 0 0 0 -4 0 -5 0 0 0 0
0 0 0 0 0 0 0 0 0 0 0 0 0 0 0 0 0 0 0 0 0 0 0 0 0 0 0 0 0 0 0 0 0 0 0 0 0 -1 0 0 0 0 -1 0 0 0 0 0 0
0 0 0 0 0 0 0 0 0 0 0 0 0 0 0 0 0 0 0 0 0 0 0 0 0 0 0 0 -7 0 0 0 0 0 0 -34 -11 -13 0 0 0 0 0 0 0 0 0 0 0
0 0 0 0 0 0 0 0 0 0 0 0 0 0 0 0 0 0 0 0 0 0 0 0 0 0 0 0 -12 -1 0 0 -22 -28 -28 -4 0 0 0 0 0 0 0 0 0 0 0 0 0
Wind_Speed
20 18 13 13 14 11 11 12 12 14 15 18 18 18 18 18 17 18 19 18 19 13 15 11 12 13 15 17 18 18 18 17 17 16 15 15 14 13 12 11 10 9 8 7 6 5 5 6 7
19 14 14 13 12 9 10 10 10 13 15 15 18 19 19 20 18 18 18 18 17 12 10 10 12 14 15 16 17 17 17 17 16 15 14 14 13 12 11 10 9 8 7 6 5 5 5 6 7
15 15 14 13 11 10 9 9 10 14 14 14 15 18 19 18 18 17 17 18 18 15 10 12 15 15 16 16 17 18 17 17 16 15 14 14 13 12 11 10 9 8 7 7 7 7 8 9 9
15 14 13 9 10 12 9 8 10 11 13 15 17 19 19 19 16 17 17 19 19 17 13 11 14 15 17 17 18 18 19 19 19 19 17 15 15 14 13 12 11 10 9 8 8 9 9 10 12
14 14 14 13 13 14 11 6 9 10 12 13 15 17 20 20 16 14 16 21 22 17 14 13 14 15 17 18 19 20 20 20 21 21 21 21 19 17 17 15 13 12 12 13 11 9 10 12 13
14 13 14 15 15 16 11 6 6 9 12 14 15 17 20 18 15 13 17 21 20 17 16 15 15 16 18 19 21 21 21 22 22 23 24 23 24 23 23 22 21 19 17 17 18 17 16 15 16
13 13 14 16 17 12 10 7 6 9 10 12 13 16 18 16 14 15 18 19 18 17 16 17 17 18 20 20 22 23 23 24 24 25 26 26 26 25 25 26 26 24 23 22 20 21 23 21 20
12 13 15 15 12 11 10 9 8 10 12 13 15 16 15 15 14 15 17 19 18 18 17 17 17 21 21 22 24 25 25 25 26 27 28 29 29 30 30 30 30 29 27 26 23 22 22 25 26
12 11 11 12 10 8 7 7 11 12 11 14 15 14 16 16 15 15 17 19 18 17 18 18 19 21 22 24 25 25 25 26 27 27 29 31 31 32 33 33 33 30 29 29 30 28 25 26 27
12 11 8 10 8 8 8 8 10 12 12 14 14 15 15 16 16 14 15 17 17 17 18 19 21 23 24 26 27 27 28 28 29 30 32 33 34 34 34 34 31 30 29 29 31 32 30 29 28
15 14 11 8 10 10 10 11 12 9 11 9 9 11 12 13 14 15 15 17 17 18 19 21 23 25 27 29 29 29 30 30 32 33 34 35 36 36 35 34 32 30 28 28 29 29 28 27 27
14 12 10 10 11 12 12 12 8 13 11 7 9 11 11 12 13 14 15 15 16 18 20 23 24 27 28 30 30 30 31 32 34 35 37 38 38 37 37 37 35 31 30 30 29 29 30 29 28
10 11 10 11 13 12 12 13 12 15 19 9 7 8 9 11 12 13 14 14 15 17 19 23 25 26 28 30 31 32 34 34 37 37 37 38 39 41 40 38 37 36 33 31 32 31 29 29 30
12 10 12 15 13 12 12 12 14 20 19 9 6 6 9 11 12 12 13 13 14 16 18 21 23 25 27 30 32 34 35 36 38 40 40 40 40 41 42 41 40 37 36 35 33 32 32 33 32
12 11 15 20 14 13 13 13 15 22 20 8 6 7 9 11 11 12 13 15 16 18 19 21 24 26 29 32 34 36 36 38 40 42 42 42 43 43 43 43 44 42 39 37 36 33 32 32 30
13 14 14 18 14 16 14 12 22 26 23 13 7 8 8 8 11 14 15 15 16 18 20 22 25 29 33 35 37 38 39 40 42 43 43 44 44 43 44 43 44 44 42 39 36 34 33 32 30
16 12 14 14 18 14 15 18 28 29 26 14 10 8 7 9 12 14 13 14 16 18 20 24 28 31 33 35 38 40 41 41 43 44 43 44 43 44 43 43 44 43 43 40 37 35 33 30 30
11 12 14 15 20 18 17 22 28 30 26 15 9 8 8 10 12 13 12 14 15 18 22 25 28 31 33 35 37 38 40 41 43 43 42 43 42 43 44 44 44 44 43 40 36 34 30 29 29
11 12 15 16 21 19 20 23 27 28 23 15 11 9 10 11 12 12 13 15 19 23 26 28 31 33 35 35 38 38 42 41 41 40 41 41 42 43 44 44 45 44 44 41 36 34 31 30 28
13 15 20 19 22 18 19 23 24 24 21 16 13 11 11 12 14 14 16 19 23 26 28 31 34 34 34 34 34 34 37 36 36 39 40 41 40 40 41 43 43 43 43 42 36 31 30 29 25
17 18 19 20 21 19 17 23 22 21 18 17 15 13 13 12 13 15 19 22 25 28 31 33 35 34 34 35 35 36 34 35 37 41 41 39 38 37 39 40 41 40 39 39 35 32 31 29 27
19 18 19 21 22 22 20 25 21 17 16 15 13 13 13 13 16 18 21 25 27 29 32 32 34 34 34 36 35 35 36 37 36 40 38 38 36 38 40 40 38 38 37 36 33 30 31 28 27
18 18 22 23 22 21 21 22 17 14 15 13 12 13 14 15 17 20 24 26 29 31 33 33 34 36 35 36 33 33 34 35 37 39 41 40 38 38 38 38 39 37 35 33 33 32 29 27 26
16 21 23 21 21 21 18 23 20 15 13 13 13 13 16 18 19 22 25 28 30 31 34 35 37 35 35 36 36 35 36 39 40 40 42 40 37 37 36 36 39 36 35 33 32 32 30 28 27
20 24 28 24 23 22 18 24 23 14 14 13 12 15 18 20 23 26 29 31 33 36 37 37 37 37 36 37 38 39 41 43 44 45 44 42 39 38 39 39 39 35 32 32 30 29 28 28 28
22 20 20 25 24 25 24 23 23 17 15 15 16 17 20 24 27 29 31 33 36 37 38 39 39 40 41 42 43 43 45 46 47 46 45 41 37 36 39 38 36 34 30 30 29 27 26 25 25
20 21 19 21 23 26 22 23 21 19 16 16 18 21 23 25 28 31 34 35 37 39 41 42 43 44 43 44 44 45 47 50 51 50 44 41 38 35 36 36 34 31 29 29 27 26 25 25 24
21 17 22 23 26 29 26 26 25 23 17 21 21 22 24 26 29 31 33 34 37 40 43 45 45 45 43 45 45 43 48 49 47 42 40 38 36 33 33 32 30 29 29 28 27 24 25 23 24
26 23 23 21 22 27 33 27 22 24 24 25 20 23 24 26 28 29 31 34 39 42 46 48 48 47 48 49 43 42 47 44 37 35 34 33 31 29 29 29 28 28 27 26 25 24 23 23 23
18 20 21 24 26 25 28 31 25 23 26 25 23 23 24 25 27 29 33 39 42 46 48 50 47 46 47 44 39 40 39 34 31 30 29 26 26 26 26 26 25 26 25 25 24 23 22 22 22
Wind_Direction
301 315 356 349 342 355 340 347 3 23 32 41 67 49 44 33 41 33 113 113 104 56 61 9 344 357 23 49 41 43 40 37 34 32 36 39 43 48 54 55 60 65 68 70 66 60 34 13 2
303 328 326 341 342 343 339 345 15 19 20 58 42 37 35 23 55 79 94 105 108 10 348 330 344 349 4 16 18 26 30 37 38 36 36 38 38 37 38 39 39 40 41 37 31 13 1 353 344
308 313 315 326 339 332 342 353 19 6 40 45 23 24 27 32 66 89 105 44 65 81 2 340 36 354 358 14 21 15 13 8 10 17 20 20 19 19 25 26 24 22 18 4 359 351 337 331 332
310 313 320 323 326 333 331 4 9 30 32 31 39 15 31 38 62 96 22 27 25 20 23 32 24 12 7 2 353 357 351 346 341 338 348 359 0 358 359 358 352 355 356 350 344 334 333 329 324
323 313 304 302 309 319 324 1 35 25 18 18 21 14 18 6 5 45 16 360 355 18 29 24 10 6 353 341 341 345 344 334 327 329 326 329 335 339 338 339 340 337 331 327 330 329 323 318 317
306 313 302 299 297 308 325 343 14 19 19 31 25 13 10 358 18 7 350 354 10 23 26 22 13 10 351 348 341 337 334 328 326 318 321 325 317 320 319 319 318 317 319 317 312 312 313 314 312
305 301 299 303 304 303 312 342 33 11 23 13 26 12 1 7 26 5 355 7 10 12 17 15 1 348 339 342 339 335 332 325 325 321 319 321 315 320 319 312 308 307 307 306 308 306 302 303 305
312 308 297 307 313 308 313 328 341 354 5 23 14 356 12 3 45 29 16 10 18 21 22 15 4 355 352 346 341 334 331 332 327 322 319 318 314 314 311 307 303 302 304 301 303 303 302 299 298
322 332 312 309 323 340 333 342 336 350 14 23 11 37 45 42 67 42 30 23 19 18 16 12 4 356 350 346 342 339 339 335 330 327 322 318 316 313 309 306 301 303 302 299 296 296 298 298 297
38 34 18 328 346 350 351 1 345 331 345 1 29 39 46 58 74 50 42 37 33 20 6 3 3 358 352 346 341 338 334 332 328 323 319 317 314 312 311 307 304 303 301 300 295 292 293 294 296
89 69 48 358 327 342 348 336 341 18 342 9 53 62 53 56 62 56 49 38 31 25 21 12 9 3 359 352 346 343 340 336 331 327 324 319 314 310 310 309 306 304 302 301 298 294 295 295 296
75 61 38 11 339 324 331 349 29 358 359 20 82 83 68 74 67 56 46 37 33 28 19 10 5 4 2 1 359 353 347 343 338 331 324 319 317 313 308 304 303 301 300 297 297 295 293 293 296
43 49 11 350 351 351 343 339 351 344 331 19 83 65 68 51 39 37 38 34 31 29 21 12 7 6 3 358 354 351 348 343 339 335 332 326 317 311 308 304 301 296 297 295 293 294 292 293 293
23 28 350 332 343 353 353 350 0 325 322 15 69 45 17 19 17 28 28 26 24 30 23 10 5 0 355 353 349 343 339 336 336 334 331 327 323 317 309 304 300 297 294 292 292 290 290 290 293
7 4 347 314 325 336 347 347 349 312 341 20 47 26 6 4 19 26 27 25 33 23 18 7 2 359 350 347 343 339 336 333 331 330 329 327 324 319 313 307 300 295 292 290 290 290 289 287 290
342 345 349 328 322 314 325 331 312 312 331 9 24 11 19 35 35 16 15 22 22 17 9 5 1 354 349 343 339 336 333 330 329 328 327 326 325 321 317 313 306 299 293 288 286 286 288 284 284
335 351 349 349 336 333 330 321 305 310 317 347 360 12 37 33 16 16 26 32 23 14 7 359 355 351 348 345 341 337 333 331 329 328 327 325 324 323 320 315 311 306 295 288 284 283 284 283 280
340 344 345 344 332 339 332 323 316 318 322 335 355 19 27 22 15 21 29 25 17 7 359 355 353 350 347 345 343 342 339 336 334 332 330 327 326 323 321 318 313 309 300 290 283 279 277 282 280
353 345 337 335 331 331 332 327 323 323 339 357 13 23 22 22 21 26 21 9 358 353 350 349 347 346 345 345 343 342 339 339 339 337 333 331 331 328 323 320 315 311 304 292 284 279 273 276 280
340 334 325 326 328 338 335 332 330 337 346 8 28 29 27 31 25 20 7 355 350 347 345 343 342 345 346 347 346 346 343 344 343 339 335 334 333 334 334 326 317 312 308 298 285 278 274 276 274
325 326 329 328 329 335 334 330 333 343 5 19 23 29 32 25 18 6 356 352 349 345 343 342 342 344 346 344 344 345 346 344 341 336 336 340 341 339 335 333 325 315 310 302 290 281 275 273 275
322 326 326 325 327 325 330 319 333 351 359 8 16 18 14 8 359 355 351 347 346 344 343 343 343 345 344 343 341 341 342 340 338 331 335 338 341 339 336 333 328 317 311 301 297 291 281 277 274
325 329 322 322 325 326 326 327 334 345 343 349 358 356 355 359 355 351 348 347 345 343 343 344 346 344 343 342 340 339 338 337 335 334 330 331 335 335 336 338 321 317 315 311 296 290 287 285 281
331 324 325 326 327 325 331 330 332 332 334 340 344 347 350 351 351 349 347 345 344 344 344 344 344 345 344 343 342 340 336 333 332 332 328 328 329 330 331 333 320 315 317 313 304 293 288 288 286
325 322 314 320 324 327 336 332 331 333 339 341 344 346 347 345 342 341 339 340 341 340 341 341 341 340 340 339 337 334 330 328 326 325 324 323 323 321 320 318 314 321 325 314 309 302 294 292 289
320 327 327 320 323 324 328 329 336 341 344 345 347 344 340 336 335 337 338 339 339 339 340 340 338 335 334 332 331 329 326 325 323 321 319 318 318 317 310 311 312 316 323 321 312 306 300 296 298
326 327 333 330 329 326 330 332 336 340 340 343 340 337 335 335 336 337 338 338 338 339 338 336 333 331 330 330 330 327 325 323 322 319 316 315 315 315 309 308 312 317 322 320 318 310 305 297 299
328 334 327 329 325 324 328 329 332 337 337 336 332 332 334 335 336 337 340 341 340 338 337 335 334 331 330 330 329 328 327 326 325 325 323 318 317 314 308 306 312 316 319 320 318 317 309 302 299
320 323 326 328 327 323 323 329 342 338 334 335 330 332 334 336 338 340 342 341 339 338 336 335 333 330 329 329 330 329 331 333 334 333 333 329 324 317 307 305 310 315 318 320 320 319 317 307 302
340 335 335 326 325 327 325 322 337 343 340 340 339 338 339 339 340 339 340 339 338 337 338 336 335 334 332 333 333 332 337 342 345 343 345 345 336 328 317 307 311 318 320 319 320 320 322 311 302